Location: Darlington Observatory
(36.4817°N, 105.8156°W)
Time: 21:12:48
(UTC-06:00)

NOSS 3-3 (A) - Visible Passes

Search period start: 21 October 2014 00:00
Search period end: 31 October 2014 00:00
Orbit: 969 x 1244 km, 63.4° (Epoch: 19 October)

Date Brightness Start Highest point End Pass type
(mag) Time Alt. Az. Time Alt. Az. Time Alt. Az.
21 Oct 5.0 19:02:15 10° NW 19:09:36 65° WSW 19:17:14 10° SSE visible
22 Oct 7.0 20:10:28 10° WNW 20:15:14 18° WSW 20:20:06 10° SW visible
23 Oct 6.4 19:24:36 10° NW 19:30:56 30° WSW 19:37:26 10° SSW visible
24 Oct 5.6 18:39:24 10° NW 18:46:31 49° WSW 18:53:52 10° S visible
25 Oct 7.4 19:49:06 10° W 19:51:57 12° WSW 19:54:50 10° SW visible
26 Oct 7.1 19:02:14 10° WNW 19:07:43 22° WSW 19:13:21 10° SSW visible
28 Oct 7.1 06:19:03 10° SE 06:22:16 14° ESE 06:25:32 10° ENE visible
29 Oct 7.5 18:40:17 10° WNW 18:44:28 16° WSW 18:48:44 10° SW visible
30 Oct 5.8 06:37:33 10° S 06:43:15 36° ESE 06:49:12 10° NE visible
